カタログに戻る

ORBCOMM FM 5 DEB

運用中LEO
NORAD 51448·DEBRIS·🇺🇸 United States

打ち上げ Dec 23, 1997 から Cape Canaveral Space Force Station

Loading…

次のパス (今後24時間)

TLE

最新Source: Space-Track

元期: Sep 14, 2026, 08:21 UTC

1 51448U 97084X   26257.34811882  .00000109  00000-0  89905-4 0  9992
2 51448  45.0121 134.8038 0036172  62.2831 298.1677 14.32989186249584

AllMySatでORBCOMM FM 5 DEBをリアルタイム追跡

Download on the App Store